Weather History for Cape Girardeau, MO

Change the Weather History Date:

Sunday, February 26, 2012

  Actual Average Record
Temperature  
Mean Temperature 45 °F 41 °F  
Max Temperature 61 °F 52 °F 74 °F (1996)
Min Temperature 28 °F 31 °F 12 °F (1963)
Degree Days  
Heating Degree Days 20 24  
Month to date heating degree days 614 713  
Since 1 July heating degree days 2882 3451  
Cooling Degree Days 0 0  
Month to date cooling degree days 0 0  
Year to date cooling degree days 0 0  
Moisture  
Dew Point 26 °F    
Average Humidity 49    
Maximum Humidity 69    
Minimum Humidity 29    
Precipitation  
Precipitation 0.00 in 0.12 in 1.66 in (2000)
Month to date precipitation 1.39 3.17  
Year to date precipitation 4.36 6.64  
Sea Level Pressure  
Sea Level Pressure 30.22 in    
Wind  
Wind Speed 12 mph (South)    
Max Wind Speed 25 mph    
Max Gust Speed 33 mph    
Visibility 10 miles    
Events      
T = Trace of Precipitation, MM = Missing Value Source: NWS Daily Summary

Daily Weather History Graph

Daily Weather History Graph

Search for Another Location

Airport:

Trip Planner

Search our weather history database for the weather conditions in past years. The results will help you decide how hot, cold, wet, or windy it might be!

Date:

Astronomy

Feb. 26, 2012 Rise Set
Actual Time 6:34 AM CST 5:48 PM CST
Civil Twilight 6:07 AM CST 6:15 PM CST
Nautical Twilight 5:37 AM CST 6:45 PM CST
Astronomical Twilight 5:07 AM CST 7:15 PM CST
Moon 8:36 AM CST (2/26) 10:38 PM CST (2/26)
Length of Visible Light 12h 07m
Length of Day
11h 14m
Waxing Crescent, 21% of the Moon is Illuminated
Feb 26
Waxing Crescent
Feb 29
First Quarter
Mar 8
Full
Mar 14
Last Quarter
Mar 22
New

Hourly Weather History & Observations

Time (CST) Temp. Windchill Dew Point Humidity Pressure Visibility Wind Dir Wind Speed Gust Speed Precip Events Conditions
12:53 AM 30.0 °F 25.2 °F 19.9 °F 66% 30.30 in 10.0 mi ESE 4.6 mph - N/A   Clear
1:53 AM 33.1 °F 24.9 °F 19.9 °F 59% 30.28 in 10.0 mi ESE 10.4 mph - N/A   Clear
2:53 AM 34.0 °F 26.6 °F 19.0 °F 54% 30.28 in 10.0 mi SE 9.2 mph - N/A   Clear
3:53 AM 30.0 °F 25.2 °F 21.0 °F 69% 30.29 in 10.0 mi ESE 4.6 mph - N/A   Clear
4:53 AM 32.0 °F 24.2 °F 21.0 °F 64% 30.29 in 10.0 mi SE 9.2 mph - N/A   Clear
5:53 AM 33.1 °F 23.9 °F 21.0 °F 61% 30.28 in 10.0 mi SSE 12.7 mph - N/A   Clear
6:53 AM 33.1 °F 23.4 °F 21.0 °F 61% 30.30 in 10.0 mi SSE 13.8 mph - N/A   Clear
7:53 AM 36.0 °F 26.7 °F 23.0 °F 59% 30.30 in 10.0 mi SSE 15.0 mph - N/A   Clear
8:53 AM 43.0 °F 36.0 °F 24.1 °F 47% 30.30 in 10.0 mi SSE 13.8 mph - N/A   Clear
9:53 AM 48.9 °F - 23.0 °F 36% 30.28 in 10.0 mi South 15.0 mph - N/A   Clear
10:53 AM 53.1 °F - 25.0 °F 34% 30.28 in 10.0 mi South 13.8 mph - N/A   Clear
11:53 AM 55.9 °F - 27.0 °F 33% 30.25 in 10.0 mi SSW 23.0 mph 27.6 mph N/A   Clear
12:53 PM 57.9 °F - 28.0 °F 32% 30.18 in 10.0 mi South 21.9 mph 29.9 mph N/A   Clear
1:53 PM 60.1 °F - 28.0 °F 30% 30.15 in 10.0 mi SSW 21.9 mph 33.4 mph N/A   Clear
2:53 PM 60.1 °F - 28.9 °F 31% 30.13 in 10.0 mi South 13.8 mph 27.6 mph N/A   Clear
3:53 PM 60.1 °F - 28.0 °F 30% 30.13 in 10.0 mi South 17.3 mph 27.6 mph N/A   Clear
4:53 PM 59.0 °F - 28.9 °F 32% 30.12 in 10.0 mi SSW 15.0 mph 25.3 mph N/A   Clear
5:53 PM 55.9 °F - 30.0 °F 37% 30.14 in 10.0 mi South 10.4 mph - N/A   Clear
6:53 PM 55.0 °F - 30.0 °F 38% 30.14 in 10.0 mi SSW 12.7 mph - N/A   Clear
7:53 PM 52.0 °F - 30.9 °F 45% 30.15 in 10.0 mi South 9.2 mph - N/A   Clear
8:53 PM 51.1 °F - 30.9 °F 46% 30.17 in 10.0 mi South 8.1 mph - N/A   Clear
9:53 PM 46.9 °F - 32.0 °F 56% 30.19 in 10.0 mi South 8.1 mph - N/A   Clear
10:53 PM 44.1 °F 40.1 °F 33.1 °F 65% 30.19 in 10.0 mi South 6.9 mph - N/A   Mostly Cloudy
11:53 PM 43.0 °F - 33.1 °F 68% 30.22 in 10.0 mi Calm Calm - N/A   Partly Cloudy